Terminal Aerodrome Forecast
Issued by NWS

Home | Current Version | Previous Version | Text Only | Print | Product List | Glossary On
Versions: 1 2 3 4 5 6 7 8 9 10 11 12 13 14
000
FTUS46 KSTO 130500 RRA
TAFMHR
TAF
KMHR 130546Z 1306/1406 15007KT P6SM SKC
     FM131400 VRB05KT P6SM SKC
     FM140000 24008KT P6SM SKC=

USA.gov is the U.S. government's official web portal to all federal, state and local government web resources and services.